Voltar ao catálogo

USA 461

AtivoMilitarVLEO
NORAD 62360·PAYLOAD·🇺🇸 United States

Lançado Dec 17, 2024 de Vandenberg Space Force Base

Loading…

Próximas Passagens (próximas 24 horas)

TLE

ObsoletoSource: Mike McCants

Época: Aug 21, 2026, 20:22 UTC

1 62360U 24243W   26233.84891876 0.00000000  00000-0  00000-0 0    02
2 62360  70.0200 132.1491 0002000  44.4988 315.5011 14.96713500    00

Acompanhe USA 461 em tempo real com AllMySat

Download on the App Store